| time (UTC) | temp C | wind direction | speed KPH | gust KPH | rain 1hr cm | rain 24hr cm | rain mn cm | humidity % | barometer mb |
| 20260505071047 | 12 | 250 | 0.0 | 1.6 | 0.00 | 0.00 | 0.00 | 87 | 1013.5 |
| 20260505070546 | 12 | 250 | 0.0 | 6.4 | 0.00 | 0.00 | 0.00 | 87 | 1013.5 |
| 20260505070100 | 12 | 250 | 0.0 | 8.0 | 0.00 | 0.00 | 0.00 | 86 | 1013.3 |
| 20260505065545 | 12 | 250 | 3.2 | 8.0 | 0.00 | 0.00 | 0.00 | 86 | 1013.2 |
| 20260505065043 | 13 | 250 | 3.2 | 8.0 | 0.00 | 0.00 | 0.00 | 85 | 1013.1 |
| 20260505064545 | 13 | 249 | 1.6 | 6.4 | 0.00 | 0.00 | 0.00 | 85 | 1013.0 |
| 20260505064041 | 13 | 249 | 1.6 | 6.4 | 0.00 | 0.00 | 0.00 | 85 | 1012.9 |
| 20260505063540 | 13 | 249 | 3.2 | 6.4 | 0.00 | 0.00 | 0.00 | 84 | 1012.9 |
| 20260505063042 | 13 | 248 | 1.6 | 6.4 | 0.00 | 0.00 | 0.00 | 84 | 1012.9 |
| 20260505062037 | 13 | 242 | 3.2 | 6.4 | 0.00 | 0.00 | 0.00 | 83 | 1012.7 |
| 20260505061553 | 13 | 242 | 1.6 | 4.8 | 0.00 | 0.00 | 0.00 | 82 | 1012.6 |
| 20260505061036 | 13 | 242 | 0.0 | 6.4 | 0.00 | 0.00 | 0.00 | 82 | 1012.7 |
| 20260505060536 | 14 | 242 | 1.6 | 8.0 | 0.00 | 0.00 | 0.00 | 81 | 1012.5 |
| 20260505060036 | 14 | 241 | 4.8 | 8.0 | 0.00 | 0.00 | 0.00 | 81 | 1012.6 |
| 20260505055535 | 14 | 240 | 1.6 | 6.4 | 0.00 | 0.00 | 0.00 | 81 | 1012.5 |
| 20260505055036 | 14 | 240 | 3.2 | 6.4 | 0.00 | 0.00 | 0.00 | 80 | 1012.5 |
| 20260505054543 | 14 | 238 | 1.6 | 4.8 | 0.00 | 0.00 | 0.00 | 80 | 1012.5 |
| 20260505054034 | 15 | 238 | 1.6 | 4.8 | 0.00 | 0.00 | 0.00 | 80 | 1012.5 |
| 20260505053534 | 15 | 238 | 1.6 | 4.8 | 0.00 | 0.00 | 0.00 | 79 | 1012.5 |
| 20260505053032 | 15 | 238 | 0.0 | 6.4 | 0.00 | 0.00 | 0.00 | 78 | 1012.5 |
| 20260505052032 | 15 | 238 | 0.0 | 8.0 | 0.00 | 0.00 | 0.00 | 77 | 1012.4 |
| 20260505051532 | 15 | 238 | 3.2 | 6.4 | 0.00 | 0.00 | 0.00 | 77 | 1012.4 |
| 20260505051033 | 15 | 238 | 1.6 | 4.8 | 0.00 | 0.00 | 0.00 | 77 | 1012.4 |
| 20260505050530 | 15 | 238 | 0.0 | 4.8 | 0.00 | 0.00 | 0.00 | 77 | 1012.3 |
| 20260505041527 | 17 | 207 | 0.0 | 1.6 | 0.00 | 0.00 | 0.00 | 71 | 1011.9 |
| 20260505041027 | 17 | 206 | 0.0 | 3.2 | 0.00 | 0.00 | 0.00 | 71 | 1011.8 |
| 20260505040528 | 17 | 192 | 0.0 | 4.8 | 0.00 | 0.00 | 0.00 | 70 | 1011.7 |
| 20260505040038 | 17 | 230 | 0.0 | 8.0 | 0.00 | 0.00 | 0.00 | 69 | 1011.6 |
| 20260505035525 | 17 | 232 | 1.6 | 8.0 | 0.00 | 0.00 | 0.00 | 68 | 1011.5 |
| 20260505035026 | 18 | 205 | 0.0 | 8.0 | 0.00 | 0.00 | 0.00 | 68 | 1011.4 |
| 20260505034536 | 18 | 201 | 1.6 | 9.7 | 0.00 | 0.00 | 0.00 | 67 | 1011.2 |
| 20260505034025 | 18 | 214 | 0.0 | 8.0 | 0.00 | 0.00 | 0.00 | 66 | 1011.2 |
| 20260505033526 | 18 | 209 | 1.6 | 6.4 | 0.00 | 0.00 | 0.00 | 65 | 1011.1 |
| 20260505033026 | 20 | 252 | 4.8 | 12.9 | 0.00 | 0.00 | 0.00 | 66 | 1011.0 |
| 20260505032029 | 20 | 257 | 4.8 | 14.5 | 0.00 | 0.00 | 0.00 | 65 | 1010.8 |
| 20260505031527 | 20 | 252 | 3.2 | 14.5 | 0.00 | 0.00 | 0.00 | 64 | 1010.9 |
| 20260505031028 | 20 | 251 | 6.4 | 12.9 | 0.00 | 0.00 | 0.00 | 64 | 1010.7 |
| 20260505030525 | 21 | 240 | 3.2 | 11.3 | 0.00 | 0.00 | 0.00 | 64 | 1010.6 |
| 20260505030025 | 21 | 239 | 3.2 | 11.3 | 0.00 | 0.00 | 0.00 | 63 | 1010.6 |
| 20260505025528 | 21 | 243 | 4.8 | 8.0 | 0.00 | 0.00 | 0.00 | 63 | 1010.5 |
| 20260505025028 | 22 | 279 | 3.2 | 11.3 | 0.00 | 0.00 | 0.00 | 62 | 1010.4 |
| 20260505024524 | 22 | 286 | 6.4 | 12.9 | 0.00 | 0.00 | 0.00 | 61 | 1010.3 |
| 20260505024024 | 22 | 282 | 6.4 | 12.9 | 0.00 | 0.00 | 0.00 | 60 | 1010.4 |
| 20260505023524 | 22 | 288 | 4.8 | 16.1 | 0.00 | 0.00 | 0.00 | 59 | 1010.3 |
| 20260505023023 | 23 | 297 | 4.8 | 16.1 | 0.00 | 0.00 | 0.00 | 58 | 1010.3 |
| 20260505022025 | 23 | 272 | 6.4 | 12.9 | 0.00 | 0.00 | 0.00 | 57 | 1010.2 |
| 20260505021522 | 23 | 261 | 4.8 | 12.9 | 0.00 | 0.00 | 0.00 | 57 | 1010.2 |
| 20260505021025 | 23 | 289 | 6.4 | 16.1 | 0.00 | 0.00 | 0.00 | 56 | 1010.2 |
| 20260505020521 | 23 | 263 | 3.2 | 16.1 | 0.00 | 0.00 | 0.00 | 57 | 1010.2 |
| 20260505020034 | 23 | 270 | 4.8 | 16.1 | 0.00 | 0.00 | 0.00 | 56 | 1010.2 |
| 20260505015521 | 23 | 250 | 6.4 | 16.1 | 0.00 | 0.00 | 0.00 | 55 | 1010.1 |
| 20260505015021 | 24 | 290 | 6.4 | 14.5 | 0.00 | 0.00 | 0.00 | 53 | 1010.2 |
| 20260505014520 | 24 | 249 | 9.7 | 14.5 | 0.00 | 0.00 | 0.00 | 53 | 1010.2 |
| 20260505014021 | 24 | 288 | 8.0 | 16.1 | 0.00 | 0.00 | 0.00 | 50 | 1010.2 |
| 20260505013520 | 25 | 285 | 11.3 | 16.1 | 0.00 | 0.00 | 0.00 | 50 | 1010.2 |
| 20260505013021 | 25 | 246 | 0.0 | 4.8 | 0.00 | 0.00 | 0.00 | 48 | 1010.1 |
| 20260505012021 | 25 | 241 | 0.0 | 12.9 | 0.00 | 0.00 | 0.00 | 48 | 1010.2 |
| 20260505011521 | 25 | 219 | 0.0 | 12.9 | 0.00 | 0.00 | 0.00 | 46 | 1010.2 |
| 20260505011019 | 25 | 221 | 0.0 | 11.3 | 0.00 | 0.00 | 0.00 | 46 | 1010.2 |
| 20260505010520 | 25 | 183 | 0.0 | 8.0 | 0.00 | 0.00 | 0.00 | 44 | 1010.2 |
| 20260505010019 | 25 | 202 | 0.0 | 1.6 | 0.00 | 0.00 | 0.00 | 44 | 1010.4 |
| 20260505005519 | 25 | 229 | 0.0 | 4.8 | 0.00 | 0.00 | 0.00 | 43 | 1010.4 |
| 20260505005019 | 25 | 347 | 0.0 | 6.4 | 0.00 | 0.00 | 0.00 | 42 | 1010.4 |
| 20260505004521 | 25 | 217 | 1.6 | 6.4 | 0.00 | 0.00 | 0.00 | 42 | 1010.4 |
| 20260505004018 | 25 | 273 | 0.0 | 3.2 | 0.00 | 0.00 | 0.00 | 40 | 1010.3 |
| 20260505003521 | 25 | 263 | 0.0 | 3.2 | 0.00 | 0.00 | 0.00 | 43 | 1010.3 |
| 20260505003018 | 26 | 254 | 6.4 | 16.1 | 0.00 | 0.00 | 0.00 | 45 | 1010.3 |
| 20260505002018 | 25 | 254 | 8.0 | 16.1 | 0.00 | 0.00 | 0.00 | 45 | 1010.3 |
| 20260505001517 | 26 | 292 | 8.0 | 16.1 | 0.00 | 0.00 | 0.00 | 43 | 1010.3 |
| 20260505001016 | 26 | 286 | 8.0 | 12.9 | 0.00 | 0.00 | 0.00 | 44 | 1010.3 |
| 20260505000516 | 26 | 257 | 3.2 | 14.5 | 0.00 | 0.00 | 0.00 | 45 | 1010.3 |
| 20260505000019 | 26 | 250 | 8.0 | 16.1 | 0.00 | 0.00 | 0.00 | 42 | 1010.4 |
| 20260504235516 | 26 | 292 | 4.8 | 16.1 | 0.00 | 0.00 | 0.00 | 42 | 1010.4 |
| 20260504235016 | 25 | 249 | 3.2 | 12.9 | 0.00 | 0.00 | 0.00 | 42 | 1010.4 |
| 20260504234516 | 25 | 254 | 4.8 | 12.9 | 0.00 | 0.00 | 0.00 | 42 | 1010.4 |
| 20260504234015 | 26 | 244 | 6.4 | 12.9 | 0.00 | 0.00 | 0.00 | 43 | 1010.4 |
| 20260504233515 | 26 | 294 | 6.4 | 16.1 | 0.00 | 0.00 | 0.00 | 42 | 1010.5 |
| 20260504233014 | 26 | 272 | 6.4 | 12.9 | 0.00 | 0.00 | 0.00 | 46 | 1010.5 |
| 20260504232013 | 26 | 261 | 6.4 | 14.5 | 0.00 | 0.00 | 0.00 | 46 | 1010.5 |
| 20260504231514 | 26 | 209 | 8.0 | 14.5 | 0.00 | 0.00 | 0.00 | 46 | 1010.6 |
| 20260504231017 | 26 | 303 | 4.8 | 14.5 | 0.00 | 0.00 | 0.00 | 44 | 1010.5 |
| 20260504230513 | 26 | 252 | 4.8 | 16.1 | 0.00 | 0.00 | 0.00 | 44 | 1010.6 |
| 20260504230013 | 26 | 293 | 3.2 | 16.1 | 0.00 | 0.00 | 0.00 | 45 | 1010.7 |
| 20260504225514 | 26 | 266 | 6.4 | 16.1 | 0.00 | 0.00 | 0.00 | 43 | 1010.8 |
| 20260504225012 | 26 | 244 | 4.8 | 12.9 | 0.00 | 0.00 | 0.00 | 42 | 1010.7 |
| 20260504224516 | 26 | 296 | 6.4 | 12.9 | 0.00 | 0.00 | 0.00 | 42 | 1010.8 |
| 20260504224018 | 27 | 276 | 6.4 | 14.5 | 0.00 | 0.00 | 0.00 | 40 | 1010.8 |
| 20260504223512 | 27 | 288 | 8.0 | 14.5 | 0.00 | 0.00 | 0.00 | 38 | 1010.8 |
| 20260504223012 | 27 | 240 | 4.8 | 12.9 | 0.00 | 0.00 | 0.00 | 41 | 1010.9 |
| 20260504222011 | 26 | 265 | 6.4 | 16.1 | 0.00 | 0.00 | 0.00 | 39 | 1011.0 |
| 20260504221511 | 26 | 302 | 8.0 | 16.1 | 0.00 | 0.00 | 0.00 | 40 | 1011.0 |
| 20260504221011 | 26 | 286 | 6.4 | 16.1 | 0.00 | 0.00 | 0.00 | 42 | 1011.0 |
| 20260504220511 | 27 | 306 | 4.8 | 16.1 | 0.00 | 0.00 | 0.00 | 40 | 1011.1 |
| 20260504220028 | 26 | 293 | 8.0 | 12.9 | 0.00 | 0.00 | 0.00 | 39 | 1011.0 |
| 20260504215511 | 26 | 272 | 4.8 | 12.9 | 0.00 | 0.00 | 0.00 | 41 | 1011.1 |
| 20260504215011 | 25 | 226 | 3.2 | 17.7 | 0.00 | 0.00 | 0.00 | 41 | 1011.1 |
| 20260504214511 | 26 | 302 | 4.8 | 17.7 | 0.00 | 0.00 | 0.00 | 39 | 1011.1 |
| 20260504214008 | 26 | 288 | 8.0 | 16.1 | 0.00 | 0.00 | 0.00 | 40 | 1011.2 |
| 20260504213507 | 26 | 327 | 4.8 | 14.5 | 0.00 | 0.00 | 0.00 | 42 | 1011.2 |
| 20260504213009 | 25 | 247 | 6.4 | 14.5 | 0.00 | 0.00 | 0.00 | 42 | 1011.2 |
| 20260504212009 | 26 | 242 | 11.3 | 16.1 | 0.00 | 0.00 | 0.00 | 42 | 1011.2 |
| 20260504211506 | 26 | 274 | 6.4 | 16.1 | 0.00 | 0.00 | 0.00 | 45 | 1011.2 |
| 20260504211005 | 25 | 269 | 6.4 | 16.1 | 0.00 | 0.00 | 0.00 | 46 | 1011.2 |
| 20260504210505 | 25 | 254 | 11.3 | 16.1 | 0.00 | 0.00 | 0.00 | 45 | 1011.2 |
| 20260504210005 | 26 | 344 | 4.8 | 16.1 | 0.00 | 0.00 | 0.00 | 42 | 1011.2 |
| 20260504205505 | 25 | 311 | 9.7 | 16.1 | 0.00 | 0.00 | 0.00 | 44 | 1011.2 |
| 20260504205005 | 25 | 266 | 4.8 | 12.9 | 0.00 | 0.00 | 0.00 | 46 | 1011.2 |
| 20260504204507 | 25 | 281 | 8.0 | 12.9 | 0.00 | 0.00 | 0.00 | 45 | 1011.3 |
| 20260504204005 | 25 | 228 | 4.8 | 11.3 | 0.00 | 0.00 | 0.00 | 46 | 1011.2 |
| 20260504203505 | 25 | 297 | 6.4 | 12.9 | 0.00 | 0.00 | 0.00 | 47 | 1011.2 |
| 20260504203005 | 26 | 297 | 11.3 | 16.1 | 0.00 | 0.00 | 0.00 | 45 | 1011.3 |
| 20260504202003 | 25 | 288 | 8.0 | 16.1 | 0.00 | 0.00 | 0.00 | 46 | 1011.4 |
| 20260504201502 | 25 | 305 | 4.8 | 12.9 | 0.00 | 0.00 | 0.00 | 47 | 1011.4 |
| 20260504201002 | 24 | 275 | 8.0 | 14.5 | 0.00 | 0.00 | 0.00 | 49 | 1011.4 |
| 20260504200502 | 24 | 243 | 6.4 | 14.5 | 0.00 | 0.00 | 0.00 | 48 | 1011.4 |
| 20260504200003 | 24 | 281 | 9.7 | 14.5 | 0.00 | 0.00 | 0.00 | 48 | 1011.5 |
| 20260504195502 | 25 | 216 | 4.8 | 12.9 | 0.00 | 0.00 | 0.00 | 45 | 1011.5 |
| 20260504195002 | 23 | 250 | 1.6 | 12.9 | 0.00 | 0.00 | 0.00 | 48 | 1011.7 |
| 20260504194600 | 24 | 270 | 4.8 | 12.9 | 0.00 | 0.00 | 0.00 | 46 | 1011.5 |
| 20260504194059 | 25 | 282 | 6.4 | 12.9 | 0.00 | 0.00 | 0.00 | 45 | 1011.5 |
| 20260504193559 | 24 | 279 | 6.4 | 12.9 | 0.00 | 0.00 | 0.00 | 47 | 1011.7 |
| 20260504193112 | 23 | 348 | 4.8 | 16.1 | 0.00 | 0.00 | 0.00 | 48 | 1011.7 |
| 20260504192100 | 23 | 289 | 3.2 | 12.9 | 0.00 | 0.00 | 0.00 | 50 | 1011.7 |
| 20260504191557 | 23 | 260 | 6.4 | 12.9 | 0.00 | 0.00 | 0.00 | 50 | 1011.8 |
| 20260504191057 | 23 | 252 | 6.4 | 12.9 | 0.00 | 0.00 | 0.00 | 49 | 1011.9 |
| 20260504190557 | 23 | 262 | 8.0 | 12.9 | 0.00 | 0.00 | 0.00 | 50 | 1011.9 |
| 20260504190108 | 23 | 266 | 4.8 | 12.9 | 0.00 | 0.00 | 0.00 | 53 | 1011.9 |
| 20260504185556 | 23 | 271 | 4.8 | 16.1 | 0.00 | 0.00 | 0.00 | 52 | 1012.0 |
| 20260504185055 | 24 | 304 | 8.0 | 16.1 | 0.00 | 0.00 | 0.00 | 50 | 1012.0 |
| 20260504184555 | 23 | 290 | 4.8 | 12.9 | 0.00 | 0.00 | 0.00 | 50 | 1012.1 |
| 20260504184057 | 23 | 288 | 4.8 | 12.9 | 0.00 | 0.00 | 0.00 | 52 | 1012.1 |
| 20260504183553 | 23 | 306 | 4.8 | 11.3 | 0.00 | 0.00 | 0.00 | 48 | 1012.1 |
| 20260504183059 | 22 | 215 | 0.0 | 3.2 | 0.00 | 0.00 | 0.00 | 49 | 1012.2 |
| 20260504182051 | 22 | 225 | 0.0 | 6.4 | 0.00 | 0.00 | 0.00 | 52 | 1012.2 |
| 20260504181550 | 22 | 232 | 1.6 | 6.4 | 0.00 | 0.00 | 0.00 | 51 | 1012.1 |
| 20260504181050 | 22 | 244 | 1.6 | 6.4 | 0.00 | 0.00 | 0.00 | 51 | 1012.1 |
| 20260504180549 | 22 | 336 | 0.0 | 1.6 | 0.00 | 0.00 | 0.00 | 53 | 1012.2 |
| 20260504180122 | 22 | 225 | 0.0 | 6.4 | 0.00 | 0.00 | 0.00 | 54 | 1012.1 |
| 20260504175547 | 21 | 188 | 3.2 | 6.4 | 0.00 | 0.00 | 0.00 | 53 | 1012.1 |
| 20260504175046 | 21 | 218 | 1.6 | 8.0 | 0.00 | 0.00 | 0.00 | 53 | 1012.2 |
| 20260504174546 | 21 | 198 | 1.6 | 9.7 | 0.00 | 0.00 | 0.00 | 53 | 1012.1 |
| 20260504174045 | 21 | 207 | 0.0 | 1.6 | 0.00 | 0.00 | 0.00 | 54 | 1012.1 |
| 20260504173542 | 21 | 196 | 0.0 | 8.0 | 0.00 | 0.00 | 0.00 | 56 | 1012.2 |
| 20260504173046 | 21 | 336 | 3.2 | 8.0 | 0.00 | 0.00 | 0.00 | 57 | 1012.1 |
| 20260504171541 | 20 | 265 | 4.8 | 9.7 | 0.00 | 0.00 | 0.00 | 58 | 1012.1 |
| 20260504171040 | 20 | 254 | 1.6 | 12.9 | 0.00 | 0.00 | 0.00 | 58 | 1012.0 |
| 20260504170539 | 20 | 260 | 4.8 | 9.7 | 0.00 | 0.00 | 0.00 | 59 | 1012.0 |
| 20260504151023 | 17 | 155 | 1.6 | 8.0 | 0.00 | 0.00 | 0.00 | 55 | 1011.4 |
| 20260504150523 | 17 | 127 | 0.0 | 8.0 | 0.00 | 0.00 | 0.00 | 56 | 1011.3 |
| 20260504141011 | 15 | 101 | 1.6 | 9.7 | 0.00 | 0.00 | 0.00 | 58 | 1010.9 |
| 20260504140510 | 15 | 89 | 1.6 | 14.5 | 0.00 | 0.00 | 0.00 | 59 | 1010.9 |
| 20260504130600 | 12 | 109 | 0.0 | 3.2 | 0.00 | 0.00 | 0.00 | 70 | 1010.5 |
| 20260504120104 | 14 | 109 | 1.6 | 3.2 | 0.00 | 0.00 | 0.00 | 63 | 1010.3 |
| 20260504110546 | 15 | 144 | 0.0 | 0.0 | 0.00 | 0.00 | 0.00 | 60 | 1010.0 |
| 20260504100541 | 16 | 107 | 3.2 | 9.7 | 0.00 | 0.00 | 0.00 | 62 | 1010.1 |
| 20260504081532 | 14 | 138 | 0.0 | 1.6 | 0.00 | 0.00 | 0.00 | 76 | 1010.6 |
| 20260504081030 | 14 | 138 | 0.0 | 0.0 | 0.00 | 0.00 | 0.00 | 76 | 1010.6 |
| 20260504080532 | 15 | 138 | 0.0 | 0.0 | 0.00 | 0.00 | 0.00 | 75 | 1010.6 |